OE7AOT Weather Reports


Display with metric or nautical units.
time (UTC)temp
F
wind
direction
speed
MPH
gust
MPH
rain 1hr
in
rain 24hr
in
rain mn
in
humidity
%
barometer
mb
20260505011717 51 129 3.0 0.0 0.00 1.11 0.00 58 908.9
20260505004717 52 0 0.0 0.0 0.00 1.11 0.00 57 909.1
20260505001717 53 0 0.0 0.0 0.00 1.11 0.00 57 909.4
20260504234717 53 0 0.0 0.0 0.00 1.11 0.00 56 909.6
20260504231717 54 0 0.0 0.0 0.00 1.11 0.00 54 909.8
20260504224717 55 0 0.0 0.0 0.00 1.11 0.00 52 909.9
20260504221717 56 0 0.0 0.0 0.00 1.11 0.00 50 910.1
20260504214717 57 0 0.0 0.0 0.00 1.11 0.00 48 910.2
20260504211717 58 0 0.0 0.0 0.00 1.11 0.00 47 910.3
20260504204717 59 234 3.0 0.0 0.00 1.11 0.00 45 910.4
20260504201717 61 273 3.0 0.0 0.00 1.11 0.00 42 910.3
20260504194717 62 0 0.0 0.0 0.00 1.11 0.00 41 910.2
20260504191717 64 136 1.0 0.0 0.00 1.11 0.00 39 910.0
20260504184717 66 0 0.0 0.0 0.00 1.11 0.00 36 909.8
20260504181717 68 0 0.0 0.0 0.00 1.11 0.00 33 909.8
20260504174717 69 0 0.0 0.0 0.00 1.11 0.00 31 909.6
20260504171717 71 280 6.0 0.0 0.00 1.11 0.00 26 909.5
20260504081717 65 176 5.0 0.0 0.00 1.11 0.00 42 912.4
20260504044717 51 0 0.0 0.0 0.00 1.11 0.00 62 913.1
20260504041717 52 136 2.0 0.0 0.00 1.11 0.00 61 912.9
20260504034717 52 134 3.0 0.0 0.00 1.11 0.00 60 912.9
20260504031717 52 0 0.0 0.0 0.00 1.11 0.00 60 912.9
20260504024717 53 0 0.0 0.0 0.00 1.11 0.00 59 913.0
20260504021717 53 0 0.0 0.0 0.00 1.11 0.00 58 912.9
20260504014717 54 0 0.0 0.0 0.00 1.11 0.00 55 912.9